Wind_Speed
39 40 41 42 43 44 44 45 45 45 45 45 45 45 45 46 46 47 48 49 50 51 52 53 54 55 56 57 58 59 60 61 62 63 65 66 67 68 69 69 70 70 70 70 69 68 67 66 66 66 65 65 66 67 68 69 71 72 74 75 75 77 79 80 81 79 74 72 74 75 76 78 77 77 79 80 79 79 80 80 81 81 81 82 81
41 42 43 44 45 46 46 46 46 46 45 45 45 46 46 47 48 49 50 51 52 53 54 55 56 57 58 59 61 62 63 64 65 66 67 68 69 69 70 70 70 70 69 69 68 67 66 66 66 65 66 66 67 69 70 71 73 74 75 77 78 80 83 84 85 85 82 78 77 78 79 81 81 80 81 83 82 82 82 82 83 83 83 84 84
43 44 45 46 47 47 47 47 47 47 47 47 47 47 48 49 50 51 52 53 54 55 56 57 58 60 61 62 63 64 65 66 67 68 68 69 70 70 70 70 70 69 68 67 67 66 66 65 66 66 67 68 70 72 73 74 76 77 78 81 82 83 85 87 87 88 87 84 81 81 81 83 84 84 85 86 86 85 86 86 86 86 86 87 87
45 46 47 48 48 48 48 48 48 48 48 48 49 49 50 51 52 53 54 55 57 58 59 60 61 62 63 64 65 66 67 68 69 70 70 70 71 71 71 70 69 68 67 67 67 67 67 66 67 69 70 71 72 74 76 78 79 81 82 84 85 86 87 88 89 90 90 88 86 84 85 85 86 87 88 89 89 89 89 88 88 87 88 89 89
47 48 48 48 48 48 48 48 48 49 49 50 50 51 52 53 54 55 57 58 59 60 61 62 63 64 65 66 67 68 69 70 71 71 71 71 71 71 71 70 69 68 68 69 69 69 69 69 70 72 73 74 75 77 79 82 83 84 86 86 87 88 89 90 91 92 92 92 89 87 87 88 89 89 90 91 91 91 91 90 90 90 90 90 91
48 48 49 49 48 49 49 49 50 50 51 51 52 53 54 55 56 57 59 60 61 62 63 64 65 66 67 69 70 71 71 71 72 71 71 71 71 70 70 69 69 69 70 70 70 71 71 72 74 75 77 78 80 82 83 85 86 87 88 89 90 91 92 92 93 93 93 93 93 91 90 90 91 91 91 92 94 94 94 93 92 92 92 93 93
49 50 50 50 50 51 51 52 52 53 53 54 55 56 57 58 59 60 61 62 64 65 66 67 68 69 70 71 71 72 72 72 72 72 72 71 71 70 69 69 69 70 70 71 71 72 73 75 77 79 81 83 84 86 87 88 88 89 90 92 93 93 93 93 93 94 95 95 95 94 94 93 93 93 92 93 94 96 96 96 95 94 94 95 95
51 51 51 52 52 53 54 54 55 56 57 58 58 59 60 61 62 63 64 65 66 67 68 69 70 71 71 72 72 72 72 72 72 72 72 71 70 70 69 69 69 69 70 71 72 74 76 78 80 82 85 86 87 88 89 91 91 92 92 94 94 94 94 94 94 95 96 97 96 96 96 96 95 95 95 95 96 96 97 99 99 98 96 96 95
52 52 53 54 55 55 56 57 58 59 60 61 62 62 63 63 64 65 66 67 68 69 70 70 71 71 72 72 72 73 73 73 73 72 72 71 70 70 69 69 70 70 71 72 74 77 79 81 84 86 87 89 90 91 92 93 94 94 94 94 95 95 95 95 95 96 97 98 98 97 98 98 98 98 98 98 98 99 99 100 100 100 99 97 95
53 54 55 56 57 58 59 60 61 62 62 63 63 64 64 65 66 67 67 68 70 70 71 71 72 72 72 72 72 73 73 73 72 72 71 71 70 70 70 71 72 73 74 75 77 80 83 85 87 88 90 91 92 93 94 94 95 95 95 94 95 96 97 97 97 98 99 100 99 99 100 101 100 100 101 100 100 101 101 100 100 100 99 98 95
56 57 58 59 60 61 61 62 63 63 64 64 65 65 66 66 67 68 69 70 71 72 72 72 72 72 72 72 73 73 73 73 72 71 71 71 71 72 73 74 75 77 78 80 82 84 86 88 89 91 92 93 94 94 95 95 95 95 95 95 96 97 98 99 99 100 101 101 101 101 102 102 102 101 101 101 102 102 101 101 100 99 97 96 93
59 60 60 61 62 62 63 63 64 65 65 66 66 67 67 68 69 70 71 71 72 72 72 72 72 72 73 73 74 73 73 72 72 72 72 73 74 75 76 77 78 80 83 85 87 88 89 90 91 92 94 95 95 95 95 95 95 96 97 97 97 98 99 100 102 102 103 103 103 103 103 103 103 103 102 102 103 103 102 101 99 97 94 91 88
61 61 61 62 62 63 64 65 66 67 67 68 68 68 69 69 70 71 71 72 72 71 72 72 73 73 74 74 74 73 73 72 73 73 74 75 77 78 79 81 83 85 87 88 90 91 92 93 93 93 94 95 96 96 97 97 97 98 98 99 99 99 100 101 103 104 105 106 107 107 106 105 105 104 102 102 103 103 101 99 95 92 89 86 82
61 62 63 63 64 66 66 67 68 68 69 70 70 70 70 70 71 71 71 72 72 72 72 73 74 74 74 73 73 73 73 74 74 76 77 78 80 81 83 85 86 88 89 90 92 92 93 94 94 94 94 95 97 98 99 100 100 101 101 101 101 101 102 103 104 106 108 109 110 110 108 107 106 105 103 102 101 99 97 94 90 87 84 81 78
63 64 65 66 66 67 68 68 69 69 70 70 70 70 70 71 71 72 72 72 72 73 73 74 74 74 73 72 72 73 75 76 77 79 81 82 83 85 87 88 88 89 90 91 93 93 94 94 95 95 96 96 98 100 102 103 104 104 104 104 103 104 104 105 106 108 109 110 111 111 109 108 107 105 103 100 97 93 91 89 86 83 81 78 75
65 66 66 67 67 68 69 69 69 70 70 70 70 70 70 71 71 71 72 72 73 73 73 74 74 73 73 73 73 75 78 79 81 82 84 85 86 88 89 90 90 91 91 92 93 94 94 95 96 97 98 98 99 101 103 105 106 106 107 107 107 107 107 106 107 109 110 111 111 110 109 108 106 103 100 96 92 89 87 85 82 80 79 76 73
67 67 67 68 68 68 69 69 69 69 69 69 70 70 70 70 71 71 72 72 73 73 73 73 73 73 74 75 76 77 80 83 84 85 87 88 89 90 91 92 92 92 92 93 93 94 95 97 98 99 100 100 101 102 104 106 108 109 110 111 111 111 109 108 108 109 109 110 110 110 108 106 103 100 95 91 88 87 86 83 79 76 76 75 71
67 67 67 68 68 68 68 68 68 68 68 69 69 69 69 70 71 71 72 73 73 73 73 73 74 74 75 77 79 80 83 85 86 87 89 90 92 93 93 93 93 94 94 94 95 96 96 97 98 100 101 102 103 104 106 108 110 112 113 114 114 114 112 111 111 110 109 109 109 107 105 102 99 96 92 89 86 85 84 82 78 75 74 72 69
67 67 67 67 68 68 68 68 68 68 68 68 68 69 70 71 72 72 73 73 73 73 73 74 75 76 78 80 82 84 85 87 88 89 90 92 93 93 94 94 95 95 95 96 96 97 97 98 99 101 103 104 105 106 107 109 112 114 115 116 117 116 116 115 114 112 110 108 105 103 100 98 97 95 92 89 86 84 82 80 76 73 71 69 67
66 66 67 67 67 67 67 67 67 67 68 68 69 70 71 72 72 72 72 73 73 74 74 75 77 79 81 83 85 86 87 88 90 90 91 92 92 93 94 95 96 96 97 97 98 98 98 99 100 102 104 106 107 108 110 111 113 115 116 117 118 118 117 116 114 112 109 107 104 102 100 98 97 95 93 90 86 83 80 76 73 70 68 65 63
65 65 66 65 66 66 66 66 67 68 68 69 70 71 72 72 72 72 73 73 74 75 76 78 80 81 83 85 86 87 88 89 89 90 91 92 92 93 94 96 96 97 97 98 99 100 101 101 102 104 106 107 109 110 111 112 113 114 115 116 117 116 115 114 113 111 110 108 106 104 101 99 96 94 91 87 83 80 76 72 68 65 64 61 58
64 65 65 65 65 66 66 67 68 69 69 70 71 71 71 71 72 72 74 75 76 78 79 81 82 83 84 85 86 87 88 88 89 90 91 92 93 94 95 95 96 97 98 99 100 101 102 103 104 105 106 108 109 110 111 112 113 113 113 113 113 113 113 114 114 112 111 108 105 102 99 95 91 88 84 80 77 73 69 65 62 60 58 55 53
65 65 65 66 66 67 67 68 68 69 70 70 70 70 70 71 73 74 76 77 79 81 82 83 84 84 84 85 86 86 87 88 89 90 91 92 92 93 94 95 97 98 99 100 102 103 104 105 106 107 108 108 109 110 111 112 112 111 110 110 111 112 112 112 111 109 106 103 99 94 89 84 81 78 74 70 67 63 60 57 55 54 52 49 47
65 65 66 66 67 67 67 68 68 69 69 69 69 70 72 74 75 77 78 80 81 82 83 84 84 84 84 84 84 85 87 88 89 90 90 91 91 92 94 96 98 100 101 102 104 105 106 107 107 108 108 109 109 110 110 110 109 108 108 109 110 110 109 106 103 100 96 91 86 82 77 73 70 67 63 60 57 54 51 50 48 47 44 42 41
65 65 65 65 66 66 66 67 67 68 69 70 71 73 75 76 78 79 80 81 82 83 83 84 84 84 84 84 84 85 87 88 88 89 89 90 91 93 95 97 98 100 102 103 104 105 106 106 107 108 108 108 109 109 108 107 107 107 107 107 106 103 100 96 92 88 84 80 76 72 68 65 61 58 54 51 48 46 44 43 41 40 38 36 36
63 63 63 64 64 65 66 67 68 70 71 73 74 75 77 78 80 81 82 82 82 83 83 83 84 84 85 85 85 86 87 87 88 88 89 91 92 94 95 97 98 100 101 102 103 103 104 105 106 107 107 107 107 107 106 106 106 106 104 100 96 92 88 84 81 77 74 71 68 65 62 58 54 51 47 45 42 39 37 36 35 33 32 31 31
61 62 63 64 65 67 68 69 71 72 74 75 76 77 79 80 81 81 81 81 81 82 83 83 84 85 85 86 86 86 86 87 88 89 90 92 93 94 95 96 98 99 100 101 102 102 103 104 104 105 105 104 104 104 105 104 103 100 95 90 84 80 76 74 72 70 68 66 62 59 55 52 48 45 41 39 36 33 31 31 30 28 27 26 26
62 64 65 66 67 69 70 71 72 74 75 76 77 78 79 80 80 80 80 80 81 82 83 84 85 86 86 86 86 85 86 88 90 91 92 93 94 95 96 97 99 100 100 101 102 102 102 102 101 101 101 101 102 102 101 99 95 90 84 79 74 71 69 67 66 64 62 60 56 52 49 45 42 38 35 32 30 28 27 27 25 23 22 22 21
64 65 66 68 69 71 72 73 74 75 76 77 77 78 78 78 79 79 80 80 82 83 84 85 86 86 86 86 87 87 88 89 91 92 93 94 95 96 96 97 98 98 99 99 100 100 99 98 98 99 99 100 100 98 95 91 85 79 74 70 67 65 64 62 60 58 55 53 49 46 42 39 35 31 29 27 25 23 22 21 20 20 20 19 18
65 66 68 70 71 72 73 73 74 74 75 75 76 77 77 78 78 79 80 81 83 84 85 85 85 86 86 88 89 90 91 91 91 92 92 92 92 92 93 93 94 95 95 95 95 95 95 96 97 98 99 98 97 93 88 82 77 72 67 64 62 60 59 56 53 50 48 45 42 39 36 33 29 25 23 20 18 17 16 16 16 17 17 16 15
68 70 71 71 72 72 72 73 73 73 74 75 76 77 78 78 79 80 81 82 83 84 84 85 86 87 88 89 90 91 91 91 91 91 90 89 88 87 88 89 90 91 92 91 91 92 94 96 97 97 97 95 91 86 81 76 72 68 63 59 57 55 53 50 47 44 41 38 35 33 31 28 24 20 18 15 12 12 12 13 13 14 14 13 13
70 71 71 71 71 71 72 72 72 73 74 75 76 77 77 78 79 80 82 82 83 84 85 86 87 88 89 89 89 89 89 89 89 88 87 86 85 85 85 86 87 87 87 88 89 92 94 96 96 95 93 90 84 79 75 71 68 64 60 56 52 49 47 44 41 37 33 30 27 26 26 23 19 15 12 10 9 9 10 11 11 10 10 10 10
70 70 70 70 70 71 71 72 73 74 75 76 77 77 78 78 79 80 81 82 83 84 85 87 87 88 88 88 87 87 86 86 85 84 83 83 83 83 84 84 84 84 85 86 89 91 94 94 94 93 90 84 78 73 70 67 64 59 55 52 49 45 41 37 33 29 27 26 25 24 22 18 14 11 10 10 11 11 10 9 7 6 7 8 8
69 69 70 70 71 71 72 73 74 75 76 77 77 78 78 78 78 79 80 82 83 85 86 87 87 87 86 86 85 85 84 83 82 81 80 80 81 82 82 82 82 83 84 86 89 92 93 92 92 89 85 79 74 71 67 63 59 54 50 47 44 39 33 28 25 25 26 26 26 23 19 16 13 13 12 11 10 8 6 4 4 6 8 8 9
69 70 70 71 72 72 73 74 76 76 77 77 77 77 78 78 79 81 82 83 84 85 85 86 86 86 85 84 83 82 81 80 79 79 79 79 80 80 80 80 80 81 83 85 89 91 92 91 89 85 80 74 71 68 65 60 54 49 45 42 37 31 26 23 23 25 26 26 26 24 19 13 11 10 8 4 2 2 1 2 5 7 8 9 10
70 71 71 72 73 74 75 76 76 77 77 78 78 78 79 80 81 82 83 84 84 85 85 85 85 84 83 82 80 79 77 77 77 77 78 79 79 79 79 80 80 81 82 85 88 90 90 90 87 81 75 71 68 65 61 56 50 45 40 36 30 26 24 24 24 25 25 24 24 24 19 12 8 7 4 4 4 2 1 4 6 8 9 10 11
72 72 73 74 74 75 76 76 77 78 79 79 79 80 81 82 83 84 84 85 85 85 84 84 83 81 79 78 76 74 74 74 75 76 77 79 80 80 80 80 81 80 81 85 88 88 88 88 84 76 70 67 65 61 57 52 46 40 34 29 26 24 25 25 25 24 24 23 22 22 19 15 11 8 5 4 1 2 4 6 7 9 10 11 11
73 73 74 74 75 76 76 77 78 79 80 80 80 82 83 84 84 85 85 85 85 84 83 82 80 78 76 74 72 71 71 72 73 75 77 78 78 79 79 80 80 80 82 85 87 87 87 86 79 72 67 64 60 56 52 47 42 36 29 25 24 24 24 25 24 23 23 22 21 19 15 12 8 4 2 0 3 6 8 9 11 12 12 12 12
73 74 75 75 76 77 78 79 80 81 81 81 82 83 84 85 85 85 85 85 84 82 80 79 77 75 73 70 69 68 68 70 72 73 74 75 76 78 79 79 79 79 82 85 85 85 86 83 74 68 64 61 56 51 47 43 38 31 25 23 23 23 23 23 23 22 22 22 19 14 9 5 3 1 2 5 7 9 10 11 12 12 12 11 11
75 75 76 77 78 79 80 81 82 82 83 83 84 85 85 85 85 85 84 83 81 79 77 75 73 71 69 67 66 67 68 70 71 72 73 74 76 77 78 77 77 79 82 83 83 85 85 78 69 63 60 56 51 47 44 40 33 26 23 23 22 21 21 22 22 22 22 20 16 10 6 4 2 3 5 6 8 10 10 11 11 11 10 10 9
76 77 78 79 80 81 82 83 84 84 84 85 85 85 85 85 84 83 81 79 77 75 73 71 69 68 66 66 66 68 69 70 71 72 74 75 75 76 76 76 77 80 81 81 81 83 81 73 64 59 56 52 48 45 41 36 30 24 22 22 21 20 20 22 22 21 20 17 13 8 5 3 2 4 5 7 8 9 9 8 8 7 7 7 7
78 78 79 81 82 83 84 85 85 84 84 85 85 84 84 83 81 79 77 74 72 70 69 67 67 66 65 66 67 69 70 70 71 72 73 73 73 74 75 76 78 80 81 80 80 81 76 66 59 56 52 48 46 44 39 33 28 24 22 21 20 19 20 20 20 18 15 11 8 5 3 2 3 5 6 7 8 7 7 6 5 4 4 5 6
79 80 81 83 83 84 85 85 85 84 84 84 83 82 81 79 76 74 72 70 68 67 66 65 65 66 66 67 68 69 69 70 71 71 71 71 72 73 74 76 78 80 80 79 80 79 71 61 55 52 48 45 44 42 35 30 27 25 23 20 18 18 19 19 18 15 11 7 4 3 2 3 5 6 7 7 7 6 5 4 4 4 5 6 7
81 82 82 83 84 84 85 86 85 84 83 82 81 79 77 74 72 70 68 66 65 64 64 65 65 66 67 68 69 69 70 70 70 70 70 71 72 73 74 76 78 78 78 79 79 76 66 55 50 47 44 42 42 39 32 27 26 26 23 19 17 17 17 17 16 14 11 7 5 4 5 7 8 9 8 7 6 6 6 6 6 7 8 9 10
82 83 83 84 84 85 85 84 83 82 81 79 77 75 72 70 68 66 64 63 63 63 64 65 66 67 68 69 69 70 70 69 69 68 69 70 71 72 74 75 77 77 77 78 78 72 62 51 45 43 40 39 39 36 30 26 26 26 23 19 17 17 17 16 15 13 11 9 8 8 9 10 10 9 9 8 8 8 9 9 9 10 10 11 11
83 84 84 84 84 84 84 82 80 78 77 75 73 71 68 66 64 63 62 62 63 63 64 65 67 67 68 69 69 69 69 68 67 67 68 70 71 73 74 75 75 76 76 76 75 69 59 49 42 39 38 37 36 33 29 27 26 25 23 20 18 17 17 17 15 13 11 11 10 10 10 11 11 11 11 11 11 11 11 11 11 11 11 11 12
84 84 84 83 83 82 81 79 76 75 73 71 68 66 64 62 61 61 62 62 63 64 65 67 68 68 68 68 68 68 67 66 66 67 68 70 71 72 73 74 74 75 75 74 71 65 56 47 40 37 35 34 33 30 28 27 26 25 22 20 19 19 18 18 17 15 14 13 13 12 12 12 13 13 13 13 13 13 12 12 12 12 12 13 14
83 83 82 81 80 79 77 74 72 71 68 65 63 62 61 60 61 62 63 63 64 65 66 67 68 68 68 68 67 66 65 64 65 66 68 69 70 71 72 73 73 74 74 72 67 60 53 46 39 35 33 32 30 29 27 27 26 24 22 20 20 20 19 19 18 16 16 16 15 15 15 15 15 15 15 14 14 13 13 12 13 13 14 15 16
81 80 79 77 76 74 71 69 67 65 63 61 60 60 60 60 61 62 63 64 64 65 66 67 67 66 66 66 65 64 63 63 65 66 67 69 70 70 71 72 73 73 72 69 63 56 51 45 39 35 32 31 29 28 27 27 26 25 22 20 20 20 20 20 19 18 17 17 17 17 17 17 17 16 16 15 15 14 14 14 15 15 16 17 18
77 76 74 72 70 68 65 63 62 61 60 60 60 60 59 60 61 62 63 64 65 65 66 66 65 65 65 64 62 62 62 63 65 66 67 68 69 70 71 72 72 72 70 65 58 53 48 44 39 35 33 31 29 27 27 27 27 26 22 20 20 20 21 21 21 20 19 19 19 19 18 18 18 17 17 16 16 16 16 17 17 17 18 19 20
72 70 68 66 65 63 61 60 60 60 60 60 60 60 60 61 62 62 63 64 64 65 65 64 64 64 63 61 60 61 62 63 64 66 67 68 69 70 71 71 71 70 66 61 55 50 46 43 39 36 34 32 29 27 27 27 27 27 24 21 20 21 22 22 23 23 22 21 20 20 19 19 19 19 19 18 18 18 18 19 19 19 20 21 21
Wind_Direction
277 278 278 278 278 278 278 278 278 279 279 279 280 281 281 282 282 282 283 283 284 285 286 287 287 288 289 289 290 291 293 293 294 295 296 297 297 298 298 298 298 298 298 298 297 297 297 296 296 297 297 297 298 299 300 301 301 301 301 300 300 299 298 298 299 300 301 300 300 300 300 299 299 299 298 297 297 296 296 296 295 295 295 294 294
277 277 278 278 278 278 278 279 279 279 280 280 280 281 281 282 282 283 284 285 285 286 287 287 288 289 290 291 292 292 293 294 294 295 296 296 297 297 297 297 297 297 297 297 296 296 296 296 295 296 296 296 297 298 299 299 300 300 300 299 299 299 298 298 299 299 300 300 300 300 300 300 300 300 299 298 298 298 298 297 297 297 297 296 296
276 276 277 277 277 277 277 278 278 279 280 280 281 281 282 283 283 284 285 285 286 287 287 289 289 290 291 291 292 292 293 293 294 295 295 296 296 296 297 297 296 296 296 295 295 294 294 294 294 294 294 295 296 297 297 298 299 299 299 299 299 299 298 299 299 299 300 301 301 301 300 300 301 301 301 300 300 299 299 299 298 298 298 297 297
275 275 275 275 275 275 276 276 277 278 278 279 280 281 282 283 283 284 285 286 287 287 288 289 290 290 290 291 291 292 293 293 294 295 295 295 295 295 295 295 295 295 294 294 294 293 293 292 293 293 294 295 296 296 297 298 299 299 299 299 299 299 299 299 299 300 300 301 302 301 301 301 302 302 301 301 300 300 300 299 299 299 298 298 297
274 274 274 274 274 274 275 275 276 277 277 278 279 280 282 283 284 285 286 287 288 288 289 289 289 290 290 291 292 292 293 294 294 294 294 295 295 295 294 294 294 294 294 294 293 292 292 292 293 294 295 296 296 297 298 298 298 299 299 299 299 299 299 299 299 300 300 301 301 302 302 302 302 303 302 301 300 300 300 300 300 299 299 298 297
273 273 273 273 274 275 275 276 277 277 278 280 281 283 284 285 286 287 287 288 288 289 289 290 290 290 291 291 292 292 293 293 293 294 294 294 294 294 294 294 294 294 294 293 293 292 293 294 295 296 297 297 298 298 298 298 299 299 299 299 299 299 299 299 300 300 300 301 302 302 303 303 303 303 302 301 301 301 300 300 300 299 299 298 297
272 272 273 274 274 275 276 277 278 280 281 283 284 285 286 286 287 287 288 288 289 289 290 290 290 291 291 292 292 292 292 293 293 293 293 294 294 294 293 293 293 294 293 293 293 293 294 296 297 298 298 298 299 299 299 299 299 299 299 299 299 299 299 300 300 301 301 302 302 303 303 304 303 303 302 301 301 301 300 300 299 298 297 296 296
272 272 273 274 275 277 278 279 280 282 283 284 285 286 286 287 288 288 289 289 289 289 290 290 290 291 291 291 291 292 292 293 293 293 293 294 293 293 293 293 293 294 294 294 294 295 296 297 298 298 299 299 299 299 299 299 299 299 299 299 300 300 301 301 302 302 302 302 303 303 303 304 304 303 302 301 301 300 299 299 298 298 296 295 295
272 273 274 275 277 278 279 280 281 282 283 284 285 286 287 288 288 288 288 288 288 289 289 290 290 291 291 291 292 292 293 293 294 294 294 294 294 294 294 294 294 295 295 295 296 296 297 298 299 299 299 299 299 299 299 299 299 300 300 301 301 302 302 303 303 303 303 303 303 303 303 303 303 302 302 301 300 299 298 298 297 297 297 296 295
273 274 276 277 278 279 280 281 282 283 284 285 286 287 287 287 287 287 288 288 288 289 289 290 290 291 292 292 293 293 294 294 294 294 294 294 294 294 295 295 296 296 296 297 297 298 299 300 300 300 299 299 299 299 300 300 301 301 302 303 303 303 303 304 304 303 303 303 303 303 303 303 303 302 301 301 300 299 298 298 297 297 297 297 297
275 276 277 279 280 281 282 283 284 285 285 286 286 286 286 287 287 288 288 288 289 289 290 291 292 292 293 293 294 294 295 295 295 295 295 295 295 296 296 297 297 298 299 299 300 300 300 300 300 300 299 299 299 300 300 301 302 302 303 304 304 304 304 304 304 303 303 302 302 302 302 302 301 301 301 300 300 299 299 299 298 298 298 298 298
277 278 279 280 281 282 283 284 284 285 285 285 286 286 287 288 288 288 288 289 290 290 291 292 292 293 294 294 295 295 295 295 295 295 296 296 297 297 298 299 299 300 301 301 301 301 300 300 300 300 300 300 301 301 301 302 302 303 303 304 304 304 304 304 304 303 302 302 301 301 301 301 301 301 301 301 300 300 299 299 299 299 299 299 299
278 279 280 281 282 283 283 284 284 285 285 286 286 287 287 288 288 288 288 289 290 291 292 293 293 294 295 295 296 296 295 295 296 296 297 298 298 299 299 300 301 301 301 301 301 301 300 300 300 301 301 302 302 302 302 302 303 303 304 304 304 304 304 304 303 303 302 302 302 302 302 302 302 302 302 301 300 300 299 299 299 299 298 298 299
279 280 281 282 282 283 283 284 284 285 286 286 287 287 287 287 287 288 289 290 291 292 293 294 294 295 295 295 296 296 296 296 297 297 298 299 299 300 301 301 301 301 301 301 301 301 301 301 302 302 302 302 303 303 303 304 304 304 304 304 304 304 304 304 303 302 302 302 302 302 302 302 302 302 301 300 300 299 299 298 298 298 297 298 298
280 281 281 282 282 283 283 284 284 285 285 286 286 287 287 287 288 289 290 291 292 293 294 294 294 295 295 295 296 296 297 297 298 299 299 300 300 301 301 301 301 301 301 301 302 302 302 303 303 303 303 304 304 304 305 305 305 305 305 305 305 304 304 304 303 302 302 301 301 302 302 302 301 301 300 299 299 298 297 297 297 297 297 297 297
281 281 281 281 282 282 283 283 284 284 285 285 286 287 287 288 289 290 291 291 292 293 293 294 294 295 296 296 297 298 298 299 299 300 300 300 301 301 301 301 301 301 301 302 303 303 303 304 304 305 305 306 305 305 305 305 305 305 305 305 304 304 303 303 302 301 301 301 301 301 301 301 300 300 299 299 298 297 296 295 296 296 296 296 296
280 281 281 281 281 282 282 283 283 284 284 285 286 287 288 289 290 290 291 292 292 293 294 294 295 296 297 297 298 298 299 299 300 300 300 300 300 301 301 301 301 302 302 303 303 304 304 305 306 306 306 306 306 306 306 306 306 305 305 304 304 303 303 302 301 301 301 300 301 301 300 300 299 299 298 298 297 296 295 295 296 295 294 295 295
280 280 280 281 281 281 282 282 283 284 285 285 286 287 288 289 290 291 291 292 293 294 295 296 297 297 297 298 298 299 299 299 299 300 300 300 301 301 301 302 302 303 303 304 304 305 306 306 306 306 306 306 306 306 306 306 305 305 304 304 303 303 303 302 301 301 301 300 300 300 299 299 298 297 297 296 295 294 294 294 295 293 293 293 293
279 279 279 280 280 281 281 282 283 284 285 286 287 288 289 290 290 291 292 293 294 295 296 297 297 297 297 298 298 299 299 299 300 300 301 301 301 302 302 303 303 304 304 305 305 306 306 306 306 306 306 306 306 306 306 305 305 304 304 304 304 304 304 303 303 302 301 300 300 299 298 298 297 295 294 293 292 292 292 292 293 292 291 291 291
278 278 279 280 280 281 282 283 284 285 286 288 289 289 290 291 292 293 294 295 295 296 296 296 296 297 297 298 298 298 299 299 300 301 301 302 302 303 303 303 304 305 305 305 306 306 306 306 306 306 306 306 306 306 306 305 305 305 306 306 306 306 305 304 304 303 302 301 300 299 298 296 294 293 292 291 291 290 290 290 290 289 288 288 289
278 279 280 281 282 283 284 285 286 287 288 289 290 290 291 292 294 294 295 295 295 295 295 295 296 296 297 297 298 299 299 300 301 301 302 303 303 303 304 304 305 305 305 306 306 306 306 306 306 306 306 306 306 306 306 306 306 307 307 307 307 306 306 305 305 304 303 302 300 299 297 295 293 292 291 290 289 289 288 288 287 286 285 286 287
279 280 281 282 283 285 286 287 288 288 289 290 290 291 292 293 293 293 293 293 294 294 294 295 295 296 296 297 299 299 300 301 301 302 302 303 304 304 304 304 305 305 305 306 306 306 306 306 306 306 306 306 306 306 307 307 307 307 307 307 307 307 306 306 305 304 303 301 300 298 297 295 293 292 291 289 288 287 286 285 284 282 283 285 286
280 281 282 283 284 285 286 287 288 288 289 290 290 291 292 292 292 292 293 293 293 293 294 294 295 296 297 298 299 300 300 301 301 302 303 303 304 304 304 304 305 305 306 306 306 306 306 306 306 306 306 306 307 307 308 308 308 308 309 309 308 308 307 305 304 303 302 301 300 299 298 296 294 293 291 289 287 285 283 282 280 280 282 284 285
281 282 283 284 285 285 286 287 287 288 289 289 290 291 291 291 291 292 292 292 293 293 294 295 296 297 298 299 299 300 300 301 301 302 303 303 303 304 304 304 305 305 306 306 306 306 307 307 307 307 308 308 309 309 309 309 310 310 310 310 309 308 306 305 304 303 302 302 301 300 298 297 295 293 290 288 285 283 281 279 278 279 281 282 282
281 282 283 283 284 285 285 286 287 288 289 289 290 290 290 291 291 291 292 293 293 294 295 296 297 298 299 299 300 300 300 301 301 302 302 303 303 303 304 304 305 305 306 306 306 307 308 308 308 309 309 310 310 310 311 311 312 312 311 310 309 307 306 305 304 304 303 302 301 299 298 296 294 292 290 287 285 282 280 278 278 279 280 279 278
281 282 282 283 284 285 285 286 287 288 289 289 289 290 290 290 291 292 293 294 295 295 296 297 298 299 299 300 300 300 300 301 301 302 302 302 303 303 304 304 305 305 305 306 307 308 308 309 310 310 311 312 312 313 313 314 314 313 312 310 309 308 307 306 305 304 303 302 301 299 298 297 295 293 290 288 286 283 281 279 278 278 276 274 273
281 282 283 284 285 285 286 287 288 288 288 288 289 289 290 291 292 293 294 295 295 296 297 298 298 299 299 299 300 300 301 301 301 301 302 302 303 303 304 304 304 305 306 306 307 308 309 310 311 312 313 314 314 315 315 315 315 314 313 312 310 309 308 307 306 305 304 303 302 301 300 299 297 295 293 291 288 284 280 277 275 273 270 266 264
282 283 283 284 285 286 286 287 287 287 287 288 288 289 290 292 293 294 295 296 296 297 297 298 298 298 299 299 300 300 301 301 301 302 302 303 303 304 304 305 305 306 307 307 308 309 311 312 313 314 314 315 316 316 316 316 315 314 313 312 311 310 309 308 308 306 305 304 304 304 303 302 301 299 297 293 288 282 277 273 269 264 260 256 252
282 283 284 285 285 286 286 286 286 287 287 288 289 291 292 293 294 295 296 296 296 297 297 297 298 299 299 300 300 300 301 301 302 303 303 304 305 306 306 307 307 308 309 310 311 312 313 314 315 316 316 317 318 318 317 317 316 315 314 313 312 312 311 310 309 308 306 306 306 306 306 305 304 302 299 293 287 280 273 266 260 256 254 251 248
282 283 284 285 285 286 286 286 287 288 289 290 291 292 293 294 294 295 295 296 296 297 297 298 298 299 299 300 301 301 302 302 303 304 305 306 307 308 308 309 310 310 312 313 314 315 316 317 318 319 320 320 320 320 319 318 317 316 315 314 314 314 313 312 310 309 308 308 308 308 308 306 303 301 298 292 284 274 263 257 253 253 253 254 256
283 284 285 286 286 286 287 287 288 289 290 291 292 292 293 294 295 295 295 296 296 297 297 298 298 299 300 301 301 302 303 304 305 305 306 307 308 308 309 309 311 312 314 315 316 318 319 320 321 321 322 322 322 321 320 319 318 317 316 316 317 316 314 312 311 310 310 310 310 310 310 307 303 300 297 287 276 266 258 254 256 258 261 264 265
284 285 286 286 287 287 287 288 289 290 290 291 291 292 293 294 294 295 295 296 296 297 297 298 299 300 300 301 302 303 304 305 306 307 307 308 308 309 310 311 312 314 315 316 318 320 322 323 323 324 324 323 322 321 320 320 319 318 318 319 318 317 315 313 313 313 314 315 315 316 315 311 306 302 297 289 280 273 269 266 266 267 267 265 260
286 286 286 286 287 287 288 288 289 289 290 291 291 292 293 293 294 294 295 295 296 297 298 298 299 300 301 302 303 304 305 306 306 307 308 308 309 310 312 313 315 316 317 318 321 323 324 324 325 325 325 323 322 321 320 320 320 319 319 320 319 318 316 315 315 320 325 328 328 326 322 316 310 306 306 303 293 284 281 280 271 253 238 231 227
286 286 286 287 287 287 288 288 289 289 290 290 291 292 292 292 293 293 294 295 296 296 297 298 300 301 302 303 304 305 305 306 307 307 308 309 310 312 313 315 317 319 320 322 323 325 325 326 326 326 325 323 321 321 321 321 320 320 320 320 319 318 317 317 320 328 333 333 330 328 326 322 317 309 302 295 286 281 283 271 231 208 197 192 187
286 286 286 287 287 287 288 288 288 289 289 290 290 291 292 292 293 293 294 294 295 296 298 299 300 301 302 303 304 305 306 306 307 308 309 310 311 313 314 316 318 320 321 323 324 325 326 326 327 326 324 322 321 321 322 321 320 320 320 319 318 317 316 318 323 328 330 327 325 323 321 319 313 303 293 293 324 354 348 203 195 184 173 170 169
285 285 286 286 286 287 287 287 288 288 289 290 291 292 292 293 293 294 294 295 296 297 298 299 300 301 302 304 305 306 306 307 308 309 310 311 313 314 316 317 319 321 322 323 325 326 326 327 327 325 323 321 321 321 322 321 320 320 319 318 316 313 313 317 320 321 321 320 319 319 319 318 316 316 337 34 43 46 159 177 176 173 174 180 186
284 284 285 285 286 286 287 287 288 289 290 291 292 292 293 293 294 294 295 296 297 298 298 299 300 301 302 304 305 305 306 307 308 310 311 312 313 315 316 318 320 322 323 324 325 326 327 328 326 324 322 321 321 322 322 320 320 319 317 314 312 310 311 314 315 316 315 312 309 310 310 309 310 326 5 38 44 197 190 186 187 190 195 203 209
283 284 284 285 286 286 287 288 289 289 291 292 292 292 293 294 294 295 296 297 297 298 298 299 300 301 302 303 304 305 306 307 309 310 311 312 313 314 316 319 321 323 324 325 326 327 328 327 325 322 321 321 321 322 321 319 319 317 314 310 309 309 311 312 312 313 314 310 304 302 301 300 303 327 20 211 221 214 208 206 207 210 215 220 225
283 284 284 285 286 287 288 288 289 290 291 292 292 292 293 294 294 295 296 297 297 298 299 300 300 301 302 303 304 305 306 308 308 309 310 311 312 314 317 319 321 323 325 325 326 327 328 327 323 321 320 321 322 322 320 318 317 314 310 307 307 308 309 310 309 309 310 307 303 300 301 306 315 307 243 236 230 226 224 223 224 226 229 232 235
284 284 285 286 287 287 288 289 289 290 291 291 292 292 293 293 294 295 295 296 297 298 299 300 301 302 303 303 304 305 307 308 308 309 309 311 313 315 318 320 321 323 325 325 326 327 328 325 322 320 320 321 322 322 319 316 314 311 306 304 304 306 307 307 307 306 303 299 295 291 290 289 281 259 250 245 241 240 240 240 242 243 242 242 241
284 285 286 286 286 287 288 288 289 290 290 291 291 292 292 293 294 294 295 296 297 298 299 300 301 302 303 303 305 307 308 309 309 309 311 312 314 316 318 320 321 323 325 325 326 328 327 323 320 319 320 321 322 322 317 312 310 308 304 300 301 304 306 306 306 303 298 293 288 283 279 273 263 256 253 252 252 254 257 260 260 256 249 241 231
284 285 285 286 286 287 287 288 288 289 289 290 290 291 291 292 293 294 295 297 298 299 300 301 302 302 302 303 306 309 310 310 310 311 313 314 316 317 318 319 321 323 324 325 326 328 326 321 318 318 319 320 321 320 315 308 307 306 300 296 298 303 304 303 301 297 295 294 293 286 277 264 253 254 257 263 269 273 276 275 269 255 240 229 223
284 284 285 285 285 286 286 286 287 287 288 288 289 290 291 292 293 294 296 297 298 299 300 301 302 301 302 304 307 309 310 311 312 313 314 315 316 317 318 319 321 323 323 325 327 328 325 319 316 317 318 319 320 318 312 304 304 303 295 291 297 302 300 297 293 287 284 287 290 280 264 256 259 265 272 276 278 276 270 262 254 245 240 238 239
283 283 283 284 284 284 284 285 286 286 287 288 289 290 291 292 293 295 296 297 298 299 301 301 301 301 302 304 307 308 309 310 312 313 314 315 315 316 318 320 321 322 323 325 327 327 323 318 315 316 317 318 319 317 310 302 301 298 289 286 295 298 292 289 286 280 273 263 248 240 244 252 261 270 277 277 273 266 259 254 251 248 246 246 247
281 282 282 282 282 282 283 284 285 286 287 287 288 290 291 292 293 295 296 297 299 300 301 301 301 301 302 303 305 306 308 310 312 313 313 314 314 316 318 320 321 322 323 325 327 326 322 316 313 314 317 318 318 315 309 303 300 293 285 283 292 293 285 280 279 277 271 263 252 247 251 256 263 270 273 272 269 267 264 261 259 256 254 255 256
280 280 280 281 281 282 283 283 284 285 286 287 288 289 291 292 294 296 297 297 299 300 301 301 300 300 301 302 304 306 308 310 311 312 312 313 314 316 318 320 321 322 324 326 326 324 320 315 312 312 315 317 316 313 310 306 299 289 282 283 288 288 282 276 272 271 270 267 263 259 260 263 266 268 269 269 269 269 267 266 265 264 263 264 265
279 279 279 280 280 281 281 282 283 284 285 287 288 290 291 293 295 296 296 297 298 299 300 300 300 300 301 302 304 306 308 309 310 310 311 312 314 316 318 319 321 322 324 326 325 322 318 314 310 309 311 314 313 311 311 308 297 285 280 283 286 285 280 275 271 269 268 267 265 264 263 264 265 266 267 268 268 268 267 267 266 267 268 270 271
278 278 279 279 279 280 281 282 283 284 286 288 289 290 292 294 295 295 296 297 297 298 298 299 299 300 301 302 304 306 307 308 309 309 311 312 314 316 318 319 321 323 324 325 323 320 315 312 308 305 307 310 310 310 311 306 293 281 278 281 283 282 279 275 272 270 269 268 267 266 265 264 264 265 266 266 265 265 264 265 266 269 271 273 275
277 277 278 279 279 280 281 281 283 285 287 288 288 289 291 293 294 295 295 295 295 296 297 298 299 299 300 302 304 305 306 307 308 309 311 313 315 317 318 320 321 323 324 323 321 317 312 309 306 302 301 305 308 309 309 302 289 279 276 278 278 277 276 273 270 269 268 268 267 267 266 266 265 264 264 263 262 262 263 265 267 270 272 275 277
276 277 278 278 278 279 279 280 283 285 286 286 286 287 289 292 294 294 293 292 293 295 296 297 298 299 301 302 303 304 305 306 307 309 311 313 315 317 318 320 322 323 323 321 318 314 308 305 303 300 297 298 302 305 305 298 286 278 275 275 274 273 272 271 269 268 266 265 265 265 264 264 264 263 262 262 261 262 263 265 268 271 274 276 278
276 276 276 276 276 276 277 280 283 284 284 284 284 286 289 291 292 291 291 291 293 294 295 296 298 299 300 301 302 303 304 306 308 310 311 313 315 317 319 320 321 322 321 318 315 310 305 302 300 298 295 293 295 297 298 293 284 277 274 274 273 271 270 269 268 268 266 264 263 262 262 262 262 262 262 262 261 262 263 265 268 271 274 276 278
Height
5822 5822 5821 5820 5819 5818 5817 5816 5815 5814 5813 5812 5811 5810 5809 5808 5807 5805 5803 5801 5800 5798 5796 5794 5792 5790 5788 5786 5783 5781 5779 5777 5775 5772 5769 5767 5764 5762 5759 5755 5751 5748 5744 5740 5736 5733 5730 5726 5722 5718 5715 5712 5708 5704 5700 5696 5692 5688 5683 5678 5674 5667 5660 5658 5655 5658 5670 5671 5663 5660 5655 5647 5648 5646 5636 5632 5631 5626 5622 5618 5613 5609 5606 5602 5599
5818 5817 5816 5815 5814 5813 5812 5811 5810 5809 5808 5807 5806 5805 5804 5802 5801 5799 5798 5796 5794 5792 5790 5788 5786 5783 5781 5779 5776 5774 5772 5770 5768 5766 5763 5760 5757 5754 5751 5748 5744 5741 5737 5733 5729 5726 5723 5719 5715 5711 5708 5705 5701 5696 5693 5689 5684 5681 5677 5670 5666 5661 5651 5647 5645 5643 5650 5659 5656 5651 5646 5637 5633 5634 5625 5618 5617 5615 5611 5606 5601 5597 5594 5589 5586
5813 5812 5811 5810 5809 5808 5807 5806 5805 5804 5803 5802 5801 5800 5798 5797 5795 5793 5792 5790 5787 5785 5783 5781 5779 5776 5774 5771 5769 5767 5765 5763 5761 5758 5756 5753 5750 5746 5743 5740 5737 5733 5730 5726 5723 5719 5715 5712 5708 5704 5701 5698 5694 5689 5685 5681 5677 5672 5669 5662 5656 5653 5645 5637 5634 5631 5631 5640 5644 5639 5635 5629 5623 5619 5613 5606 5602 5599 5597 5594 5589 5585 5582 5576 5572
5807 5806 5805 5804 5803 5803 5802 5801 5800 5799 5798 5797 5795 5794 5792 5791 5789 5787 5785 5783 5781 5779 5776 5774 5772 5769 5767 5764 5762 5760 5758 5755 5753 5750 5748 5745 5743 5739 5736 5732 5729 5726 5723 5719 5715 5712 5708 5705 5701 5697 5694 5690 5687 5682 5677 5673 5669 5664 5659 5655 5647 5642 5638 5630 5623 5619 5616 5619 5626 5626 5621 5616 5612 5607 5599 5593 5590 5586 5581 5579 5576 5573 5570 5564 5559
5801 5800 5799 5799 5798 5797 5796 5795 5794 5793 5792 5791 5790 5788 5787 5785 5783 5781 5779 5776 5774 5772 5769 5767 5765 5762 5760 5757 5754 5752 5749 5747 5744 5742 5739 5737 5735 5732 5728 5725 5721 5718 5714 5711 5707 5704 5700 5697 5693 5689 5685 5682 5678 5674 5669 5664 5660 5655 5650 5645 5639 5633 5628 5622 5614 5609 5604 5602 5606 5611 5608 5602 5598 5595 5586 5576 5574 5573 5569 5565 5562 5559 5556 5552 5547
5795 5794 5794 5793 5792 5791 5791 5790 5788 5787 5786 5785 5783 5782 5780 5778 5776 5774 5772 5769 5767 5765 5762 5760 5757 5754 5752 5749 5746 5743 5741 5739 5736 5734 5731 5729 5726 5723 5720 5717 5714 5710 5707 5703 5699 5695 5692 5688 5685 5681 5676 5673 5669 5664 5660 5655 5650 5646 5640 5634 5629 5623 5618 5613 5606 5598 5594 5590 5589 5591 5593 5589 5584 5581 5575 5563 5556 5554 5552 5551 5551 5547 5541 5537 5534
5789 5788 5788 5787 5786 5785 5784 5783 5782 5781 5779 5778 5777 5775 5773 5771 5769 5767 5764 5762 5759 5757 5754 5752 5749 5746 5743 5740 5737 5735 5732 5730 5728 5725 5723 5720 5718 5715 5712 5709 5706 5703 5699 5695 5691 5687 5684 5680 5676 5672 5667 5662 5658 5654 5649 5645 5640 5637 5631 5623 5618 5614 5608 5602 5596 5588 5581 5577 5576 5574 5573 5573 5569 5564 5561 5553 5544 5538 5533 5529 5532 5535 5531 5523 5520
5783 5782 5782 5781 5780 5779 5778 5777 5775 5774 5773 5771 5769 5768 5766 5764 5762 5759 5757 5754 5752 5749 5747 5744 5741 5738 5735 5732 5729 5726 5723 5721 5718 5716 5714 5711 5709 5706 5704 5701 5698 5696 5692 5688 5684 5679 5676 5672 5667 5662 5657 5652 5647 5642 5638 5633 5629 5626 5622 5613 5605 5601 5596 5591 5584 5577 5569 5564 5562 5560 5556 5555 5554 5549 5544 5540 5532 5527 5522 5513 5510 5513 5514 5510 5507
5777 5776 5776 5774 5773 5772 5771 5770 5769 5767 5765 5764 5762 5760 5759 5756 5754 5752 5749 5747 5744 5741 5739 5736 5733 5730 5726 5723 5720 5717 5714 5712 5709 5707 5705 5703 5701 5698 5695 5692 5689 5687 5684 5680 5676 5671 5667 5663 5658 5652 5647 5642 5636 5631 5627 5621 5615 5612 5610 5603 5594 5588 5583 5578 5572 5564 5557 5551 5548 5546 5541 5539 5538 5532 5527 5526 5518 5511 5508 5502 5495 5493 5491 5490 5492
5771 5770 5769 5768 5767 5766 5764 5763 5762 5760 5758 5757 5755 5753 5751 5749 5746 5744 5741 5739 5736 5733 5731 5728 5725 5721 5718 5714 5711 5708 5705 5703 5700 5698 5696 5694 5692 5689 5686 5684 5680 5677 5675 5672 5668 5663 5658 5653 5648 5643 5637 5631 5626 5621 5616 5611 5604 5599 5595 5590 5583 5576 5569 5565 5560 5552 5543 5537 5535 5532 5526 5524 5523 5517 5511 5509 5504 5495 5490 5487 5481 5478 5473 5469 5471
5765 5764 5763 5761 5760 5759 5757 5756 5754 5753 5751 5749 5747 5745 5743 5741 5738 5736 5733 5730 5728 5725 5722 5719 5716 5713 5710 5706 5702 5699 5695 5693 5691 5688 5686 5684 5682 5680 5677 5674 5671 5667 5664 5661 5657 5653 5649 5643 5639 5633 5626 5620 5615 5610 5605 5600 5594 5588 5583 5578 5572 5564 5556 5550 5545 5539 5531 5524 5522 5519 5513 5508 5507 5504 5497 5491 5486 5479 5474 5469 5464 5461 5457 5451 5451
5758 5757 5755 5754 5753 5751 5750 5748 5747 5745 5743 5741 5740 5737 5735 5733 5730 5727 5724 5722 5719 5716 5713 5710 5707 5704 5701 5697 5693 5690 5686 5684 5681 5679 5677 5674 5672 5670 5667 5664 5661 5658 5653 5649 5646 5642 5637 5633 5629 5624 5616 5608 5602 5598 5593 5589 5584 5578 5573 5568 5562 5555 5547 5537 5530 5523 5516 5510 5507 5505 5501 5494 5489 5488 5483 5474 5467 5462 5457 5452 5447 5444 5441 5437 5435
5750 5749 5748 5747 5745 5744 5742 5741 5739 5737 5735 5733 5731 5729 5727 5724 5721 5718 5716 5713 5711 5708 5705 5702 5699 5695 5693 5689 5684 5680 5677 5675 5672 5670 5668 5665 5662 5660 5657 5654 5651 5648 5643 5638 5634 5630 5624 5620 5618 5614 5607 5597 5589 5583 5580 5576 5572 5567 5562 5556 5552 5546 5538 5529 5518 5508 5500 5494 5488 5487 5487 5481 5473 5470 5468 5458 5448 5444 5441 5436 5433 5430 5426 5424 5423
5743 5742 5741 5739 5738 5736 5734 5733 5731 5729 5727 5725 5723 5721 5718 5716 5713 5710 5708 5705 5702 5699 5696 5693 5690 5687 5684 5681 5676 5672 5668 5666 5663 5660 5658 5656 5653 5650 5647 5644 5641 5637 5633 5628 5622 5617 5612 5606 5602 5600 5596 5589 5578 5569 5564 5560 5557 5554 5550 5544 5539 5534 5527 5519 5508 5497 5488 5480 5472 5469 5469 5466 5458 5453 5451 5444 5434 5428 5423 5419 5418 5416 5413 5412 5412
5736 5735 5733 5731 5730 5728 5726 5724 5722 5720 5719 5716 5714 5712 5709 5707 5704 5702 5699 5697 5694 5691 5688 5685 5682 5678 5675 5673 5669 5663 5658 5656 5654 5651 5648 5646 5643 5640 5636 5634 5631 5627 5623 5617 5610 5605 5600 5594 5589 5585 5581 5577 5568 5557 5549 5543 5539 5537 5534 5530 5526 5521 5516 5508 5496 5486 5477 5469 5461 5455 5452 5450 5444 5438 5434 5429 5422 5416 5409 5404 5404 5402 5399 5400 5401
5728 5727 5725 5723 5722 5720 5718 5716 5714 5712 5710 5708 5706 5704 5701 5699 5696 5693 5691 5688 5686 5683 5680 5677 5673 5670 5667 5664 5661 5655 5648 5645 5644 5641 5637 5635 5632 5630 5626 5623 5620 5616 5613 5607 5600 5594 5588 5581 5575 5570 5566 5562 5555 5546 5537 5528 5522 5518 5515 5512 5510 5506 5503 5497 5485 5474 5466 5456 5449 5444 5438 5433 5429 5423 5418 5413 5407 5402 5395 5391 5393 5390 5384 5386 5389
5720 5719 5717 5715 5713 5711 5709 5707 5706 5704 5702 5700 5697 5695 5693 5690 5688 5685 5682 5680 5677 5675 5671 5668 5664 5662 5658 5654 5652 5648 5641 5635 5633 5631 5627 5623 5621 5618 5615 5611 5608 5604 5601 5597 5590 5584 5578 5571 5562 5556 5551 5548 5542 5535 5526 5516 5507 5502 5496 5492 5489 5487 5486 5482 5473 5466 5457 5446 5437 5431 5424 5419 5413 5408 5404 5399 5393 5387 5380 5378 5381 5378 5372 5373 5375
5712 5710 5708 5707 5705 5703 5701 5699 5697 5696 5694 5691 5689 5687 5685 5682 5679 5677 5674 5671 5668 5666 5663 5659 5655 5652 5650 5646 5642 5639 5634 5627 5623 5620 5617 5612 5609 5606 5601 5598 5595 5592 5589 5585 5580 5573 5568 5561 5553 5544 5537 5533 5528 5522 5515 5504 5495 5488 5481 5474 5469 5466 5464 5460 5455 5451 5446 5437 5427 5419 5411 5405 5399 5394 5390 5387 5381 5375 5368 5365 5368 5366 5362 5362 5362
5703 5702 5700 5698 5696 5695 5693 5691 5689 5687 5685 5683 5681 5678 5676 5673 5670 5668 5665 5662 5660 5657 5654 5652 5648 5643 5640 5637 5632 5629 5625 5619 5613 5609 5606 5602 5598 5594 5589 5584 5581 5579 5575 5571 5568 5563 5558 5552 5544 5535 5525 5519 5514 5509 5502 5493 5481 5473 5466 5457 5449 5445 5441 5436 5432 5429 5425 5421 5415 5408 5400 5393 5386 5380 5376 5372 5369 5364 5358 5355 5355 5353 5351 5351 5350
5695 5693 5692 5690 5688 5687 5685 5683 5681 5679 5676 5674 5672 5669 5666 5664 5661 5658 5656 5653 5651 5648 5646 5644 5640 5636 5632 5628 5623 5618 5614 5610 5604 5598 5594 5591 5587 5582 5577 5571 5567 5565 5562 5558 5553 5550 5547 5542 5535 5526 5516 5507 5501 5495 5488 5480 5468 5458 5450 5441 5431 5424 5418 5412 5409 5406 5401 5398 5395 5390 5384 5378 5371 5365 5361 5357 5355 5352 5348 5346 5344 5341 5340 5341 5340
5686 5685 5683 5682 5680 5678 5676 5674 5672 5669 5667 5665 5662 5659 5657 5654 5652 5649 5647 5644 5642 5640 5638 5635 5632 5628 5624 5619 5614 5609 5604 5600 5595 5589 5584 5580 5575 5570 5564 5559 5554 5550 5548 5545 5540 5535 5531 5527 5523 5516 5506 5497 5489 5481 5473 5466 5456 5445 5437 5427 5416 5407 5399 5391 5387 5383 5379 5375 5372 5368 5364 5359 5354 5349 5345 5342 5340 5338 5336 5335 5334 5331 5330 5330 5330
5678 5676 5675 5673 5671 5669 5667 5665 5663 5660 5658 5656 5653 5651 5648 5646 5643 5641 5638 5636 5634 5631 5628 5626 5623 5620 5616 5610 5604 5599 5594 5589 5585 5580 5575 5569 5563 5558 5552 5547 5541 5537 5534 5532 5527 5522 5517 5512 5508 5502 5494 5485 5477 5469 5461 5452 5443 5434 5425 5415 5403 5393 5383 5373 5366 5361 5357 5353 5349 5345 5342 5338 5334 5332 5330 5327 5326 5325 5324 5324 5323 5321 5321 5321 5321
5669 5667 5666 5664 5662 5660 5658 5656 5654 5651 5649 5647 5644 5642 5640 5637 5635 5633 5630 5627 5625 5621 5619 5616 5613 5611 5608 5603 5596 5590 5585 5580 5575 5570 5566 5560 5554 5548 5541 5535 5529 5524 5520 5517 5513 5508 5503 5498 5493 5487 5479 5472 5464 5456 5447 5439 5430 5421 5412 5402 5391 5380 5369 5358 5350 5342 5337 5332 5328 5325 5323 5320 5317 5315 5315 5314 5313 5312 5312 5313 5313 5312 5312 5312 5312
5661 5659 5657 5656 5654 5652 5650 5648 5646 5643 5641 5639 5637 5634 5631 5628 5626 5623 5621 5618 5615 5611 5608 5605 5603 5600 5598 5595 5589 5582 5576 5571 5566 5561 5557 5552 5545 5538 5532 5526 5519 5512 5507 5503 5498 5493 5488 5482 5476 5470 5463 5457 5450 5442 5433 5425 5416 5407 5398 5388 5377 5366 5355 5345 5336 5328 5321 5317 5312 5309 5307 5306 5303 5301 5301 5301 5301 5301 5302 5303 5303 5304 5304 5305 5305
5652 5650 5649 5647 5645 5644 5642 5640 5638 5635 5633 5631 5628 5625 5622 5619 5616 5613 5611 5608 5604 5601 5598 5594 5591 5589 5586 5584 5581 5575 5568 5562 5557 5552 5547 5542 5536 5530 5523 5517 5509 5502 5496 5490 5485 5480 5474 5467 5460 5454 5448 5442 5435 5427 5419 5411 5402 5394 5385 5374 5363 5352 5342 5332 5324 5317 5310 5306 5301 5298 5296 5295 5293 5291 5290 5290 5291 5292 5293 5294 5295 5296 5297 5298 5298
5644 5642 5640 5639 5637 5635 5633 5631 5629 5627 5624 5622 5619 5616 5613 5609 5606 5603 5600 5597 5593 5590 5587 5583 5580 5577 5574 5572 5569 5565 5559 5553 5548 5544 5539 5533 5528 5521 5514 5507 5500 5493 5486 5480 5474 5469 5463 5456 5448 5440 5432 5426 5419 5410 5402 5395 5387 5378 5369 5360 5350 5340 5330 5321 5314 5307 5302 5297 5293 5290 5288 5286 5285 5283 5282 5282 5283 5284 5285 5286 5288 5289 5291 5292 5293
5635 5634 5632 5630 5629 5627 5625 5623 5621 5618 5615 5612 5609 5607 5604 5600 5597 5593 5590 5586 5583 5579 5575 5572 5569 5566 5563 5560 5557 5554 5549 5542 5537 5533 5529 5524 5519 5512 5505 5498 5492 5485 5477 5470 5465 5460 5453 5446 5438 5429 5421 5414 5407 5398 5389 5381 5372 5362 5353 5345 5337 5329 5321 5313 5305 5299 5293 5289 5286 5284 5281 5279 5278 5277 5277 5276 5277 5278 5279 5280 5282 5284 5285 5286 5287
5627 5625 5624 5622 5620 5619 5616 5614 5612 5609 5606 5603 5600 5597 5594 5590 5587 5583 5580 5576 5573 5569 5565 5561 5558 5555 5551 5548 5546 5544 5539 5532 5526 5521 5517 5512 5506 5501 5495 5488 5481 5474 5466 5459 5453 5448 5442 5435 5428 5421 5413 5405 5397 5389 5379 5370 5360 5351 5341 5333 5326 5320 5313 5306 5300 5293 5287 5283 5280 5278 5276 5274 5273 5272 5272 5271 5271 5272 5274 5275 5276 5278 5280 5281 5283
5619 5617 5615 5613 5612 5610 5608 5605 5603 5600 5597 5593 5590 5587 5584 5580 5576 5573 5570 5566 5563 5559 5555 5551 5547 5544 5540 5536 5533 5531 5528 5523 5516 5509 5504 5498 5492 5485 5479 5472 5466 5460 5454 5447 5440 5435 5429 5423 5416 5408 5400 5393 5385 5376 5367 5359 5351 5343 5334 5325 5318 5312 5306 5300 5294 5289 5283 5278 5275 5273 5271 5269 5268 5268 5267 5267 5267 5268 5269 5270 5272 5274 5275 5277 5279
5611 5608 5607 5605 5602 5600 5598 5595 5593 5590 5587 5583 5580 5576 5573 5570 5567 5564 5560 5556 5553 5548 5544 5541 5537 5533 5529 5524 5520 5516 5513 5509 5505 5499 5493 5488 5482 5475 5468 5460 5452 5445 5439 5434 5429 5423 5416 5410 5403 5395 5386 5378 5369 5360 5353 5346 5339 5333 5327 5320 5312 5306 5300 5294 5289 5284 5280 5275 5272 5270 5267 5266 5265 5264 5264 5264 5264 5264 5266 5267 5269 5270 5272 5274 5275
5601 5599 5597 5595 5592 5590 5588 5585 5583 5580 5578 5574 5570 5567 5563 5560 5557 5554 5550 5547 5543 5538 5534 5530 5526 5522 5518 5514 5509 5503 5498 5494 5490 5486 5482 5477 5473 5468 5462 5454 5446 5438 5430 5423 5418 5413 5405 5397 5390 5383 5375 5366 5357 5348 5340 5334 5328 5322 5318 5313 5307 5300 5295 5289 5284 5280 5277 5273 5270 5267 5265 5263 5262 5262 5262 5262 5262 5263 5264 5265 5266 5268 5269 5271 5272
5591 5589 5587 5584 5582 5580 5578 5576 5573 5571 5568 5565 5562 5559 5556 5552 5548 5544 5540 5536 5533 5528 5524 5520 5516 5512 5507 5503 5499 5494 5488 5483 5478 5473 5469 5465 5461 5457 5453 5446 5439 5432 5425 5416 5409 5402 5394 5385 5377 5370 5363 5356 5348 5340 5332 5325 5319 5314 5309 5305 5301 5296 5290 5285 5281 5277 5274 5271 5268 5266 5264 5262 5261 5261 5261 5261 5262 5262 5263 5264 5265 5266 5267 5268 5270
5581 5579 5577 5574 5573 5570 5568 5566 5564 5561 5559 5556 5553 5551 5548 5544 5541 5536 5531 5527 5523 5518 5514 5509 5505 5501 5497 5493 5489 5484 5479 5474 5469 5464 5459 5454 5450 5446 5442 5437 5429 5421 5415 5409 5402 5394 5386 5377 5368 5360 5352 5345 5339 5333 5327 5320 5313 5308 5303 5299 5295 5291 5286 5282 5279 5276 5273 5270 5268 5265 5263 5262 5261 5260 5261 5261 5261 5261 5262 5262 5263 5264 5266 5267 5268
5571 5569 5567 5565 5563 5560 5558 5556 5554 5551 5549 5546 5544 5542 5539 5536 5533 5529 5525 5520 5515 5510 5505 5500 5495 5491 5486 5483 5479 5474 5469 5464 5460 5456 5451 5447 5442 5437 5433 5428 5421 5413 5404 5397 5391 5385 5377 5369 5361 5353 5344 5337 5330 5325 5321 5315 5309 5304 5300 5295 5291 5287 5284 5281 5278 5275 5273 5271 5268 5266 5264 5262 5261 5261 5261 5261 5261 5261 5261 5262 5263 5264 5265 5266 5267
5561 5559 5557 5555 5552 5550 5548 5546 5543 5541 5539 5536 5534 5532 5529 5526 5523 5520 5516 5512 5508 5503 5497 5492 5486 5481 5477 5473 5469 5465 5460 5455 5451 5446 5442 5438 5434 5431 5426 5421 5415 5409 5400 5392 5384 5376 5368 5360 5353 5346 5338 5331 5325 5318 5314 5309 5304 5300 5296 5292 5289 5285 5282 5280 5278 5275 5273 5271 5269 5267 5265 5263 5262 5261 5261 5261 5261 5261 5262 5263 5264 5264 5265 5266 5268
5551 5548 5547 5545 5542 5540 5538 5535 5533 5531 5528 5526 5524 5521 5518 5515 5512 5508 5505 5501 5497 5493 5489 5484 5479 5473 5468 5464 5460 5455 5450 5446 5442 5437 5433 5428 5424 5420 5416 5412 5407 5402 5395 5387 5379 5370 5361 5352 5345 5339 5332 5325 5319 5314 5308 5304 5300 5296 5292 5289 5286 5284 5281 5279 5277 5275 5273 5271 5269 5267 5266 5264 5263 5262 5261 5261 5262 5262 5263 5264 5264 5265 5266 5267 5268
5541 5539 5537 5535 5533 5530 5528 5525 5523 5520 5517 5515 5513 5510 5506 5503 5499 5496 5493 5489 5486 5482 5479 5474 5471 5466 5461 5457 5453 5448 5444 5438 5434 5429 5424 5419 5414 5410 5406 5402 5398 5393 5386 5379 5371 5364 5355 5346 5338 5332 5326 5320 5315 5309 5304 5300 5296 5292 5289 5287 5284 5282 5280 5278 5276 5274 5273 5271 5269 5267 5266 5264 5263 5262 5262 5262 5263 5263 5264 5264 5265 5265 5266 5267 5268
5531 5529 5527 5524 5522 5520 5517 5515 5512 5509 5507 5505 5502 5498 5495 5491 5488 5484 5481 5478 5475 5471 5468 5464 5461 5458 5455 5451 5447 5443 5438 5433 5428 5422 5417 5412 5407 5403 5398 5393 5389 5383 5378 5370 5363 5355 5348 5340 5333 5326 5321 5315 5310 5305 5301 5296 5293 5289 5287 5285 5283 5281 5279 5277 5275 5273 5272 5270 5268 5266 5265 5264 5263 5263 5263 5263 5264 5264 5264 5264 5265 5265 5266 5267 5268
5521 5519 5516 5514 5512 5509 5506 5504 5501 5499 5496 5494 5490 5487 5483 5480 5477 5474 5470 5467 5464 5460 5457 5454 5451 5448 5446 5443 5439 5436 5431 5427 5422 5417 5412 5406 5401 5395 5391 5386 5381 5376 5370 5363 5356 5348 5341 5334 5327 5321 5315 5310 5306 5301 5297 5293 5290 5287 5285 5283 5281 5280 5278 5276 5274 5272 5271 5269 5267 5266 5264 5263 5263 5263 5263 5263 5263 5263 5264 5264 5264 5265 5266 5266 5267
5511 5508 5506 5504 5501 5498 5495 5493 5490 5488 5486 5482 5479 5476 5473 5469 5466 5463 5460 5457 5454 5450 5447 5445 5441 5439 5436 5433 5430 5427 5424 5419 5414 5410 5405 5400 5394 5389 5383 5379 5374 5369 5363 5357 5349 5342 5335 5328 5322 5316 5311 5306 5301 5297 5293 5290 5287 5285 5283 5281 5280 5278 5276 5275 5273 5271 5269 5268 5266 5265 5264 5263 5263 5263 5263 5263 5263 5263 5263 5264 5264 5265 5265 5266 5266
5500 5497 5495 5493 5490 5488 5485 5482 5480 5478 5475 5472 5468 5466 5463 5460 5457 5453 5450 5447 5444 5441 5438 5435 5432 5429 5427 5424 5421 5418 5414 5410 5406 5401 5396 5392 5387 5381 5376 5371 5366 5361 5356 5351 5344 5337 5329 5322 5317 5312 5307 5302 5297 5293 5290 5287 5284 5283 5281 5279 5278 5276 5275 5273 5271 5270 5268 5267 5265 5264 5263 5263 5263 5263 5263 5263 5263 5263 5263 5263 5264 5264 5265 5265 5266
5489 5487 5485 5482 5479 5477 5474 5472 5470 5468 5465 5461 5458 5455 5452 5450 5447 5444 5441 5438 5435 5433 5430 5427 5423 5420 5417 5415 5412 5408 5404 5401 5397 5392 5388 5383 5379 5374 5368 5363 5358 5353 5348 5343 5338 5331 5324 5317 5312 5307 5303 5298 5294 5290 5287 5284 5282 5280 5279 5277 5276 5274 5273 5271 5270 5268 5267 5266 5264 5264 5263 5263 5263 5263 5263 5263 5263 5263 5263 5263 5263 5263 5264 5264 5265
5478 5476 5474 5471 5469 5467 5463 5461 5459 5457 5454 5451 5448 5445 5442 5440 5437 5434 5432 5429 5427 5424 5421 5418 5415 5412 5409 5406 5403 5399 5396 5392 5388 5384 5380 5375 5371 5366 5361 5356 5350 5345 5339 5335 5330 5324 5317 5311 5306 5302 5298 5294 5290 5287 5284 5281 5279 5278 5277 5275 5274 5273 5271 5270 5269 5267 5266 5265 5264 5263 5263 5263 5263 5262 5262 5262 5262 5262 5262 5262 5262 5263 5263 5264 5264
5468 5466 5463 5461 5458 5455 5453 5450 5448 5446 5443 5440 5438 5435 5432 5430 5427 5425 5423 5420 5418 5415 5413 5410 5407 5404 5401 5398 5395 5391 5387 5384 5380 5376 5372 5368 5363 5359 5354 5349 5343 5337 5332 5327 5322 5317 5311 5306 5301 5297 5294 5290 5287 5283 5281 5279 5277 5276 5274 5273 5272 5270 5269 5268 5267 5266 5265 5263 5263 5263 5262 5262 5262 5262 5262 5261 5261 5261 5261 5261 5261 5261 5262 5262 5263
5457 5455 5452 5450 5447 5444 5442 5440 5437 5434 5432 5430 5427 5425 5423 5421 5418 5417 5415 5412 5410 5407 5405 5402 5399 5396 5393 5390 5386 5383 5379 5375 5372 5368 5364 5360 5356 5351 5346 5341 5336 5331 5326 5320 5315 5310 5305 5301 5296 5293 5289 5286 5283 5280 5277 5276 5274 5273 5271 5270 5269 5268 5267 5266 5265 5264 5263 5262 5262 5261 5261 5261 5261 5261 5260 5260 5260 5260 5260 5260 5260 5260 5261 5261 5261
5445 5443 5440 5438 5435 5433 5430 5429 5426 5424 5421 5419 5417 5416 5414 5412 5410 5408 5406 5404 5402 5399 5397 5394 5391 5388 5385 5382 5378 5375 5371 5367 5363 5360 5356 5352 5348 5343 5339 5334 5329 5324 5319 5314 5308 5303 5299 5295 5292 5288 5285 5282 5279 5277 5274 5273 5271 5270 5268 5267 5266 5265 5265 5264 5263 5262 5261 5261 5260 5260 5259 5259 5259 5259 5259 5258 5258 5258 5258 5258 5258 5259 5259 5259 5259
5433 5431 5429 5427 5424 5422 5420 5418 5416 5413 5412 5410 5408 5407 5405 5403 5402 5400 5398 5396 5394 5391 5389 5386 5383 5380 5377 5374 5370 5367 5363 5359 5356 5352 5348 5344 5340 5336 5332 5327 5322 5317 5312 5306 5301 5296 5292 5289 5287 5284 5281 5278 5276 5273 5271 5269 5268 5266 5265 5264 5263 5263 5262 5261 5260 5260 5259 5258 5258 5257 5257 5257 5257 5257 5257 5257 5256 5256 5256 5257 5257 5257 5257 5257 5257
5421 5419 5417 5415 5413 5411 5409 5407 5405 5404 5402 5401 5399 5398 5396 5395 5393 5392 5390 5388 5385 5383 5380 5378 5375 5372 5369 5366 5363 5359 5355 5352 5348 5344 5341 5337 5333 5328 5324 5320 5315 5310 5305 5300 5294 5290 5286 5284 5281 5279 5277 5275 5272 5270 5268 5266 5265 5263 5262 5261 5260 5259 5259 5258 5258 5257 5256 5256 5255 5255 5255 5255 5254 5254 5254 5254 5254 5254 5254 5254 5254 5254 5254 5254 5255
5409 5407 5405 5404 5401 5400 5398 5397 5396 5395 5393 5392 5391 5389 5388 5386 5385 5383 5381 5379 5377 5375 5372 5369 5367 5364 5361 5358 5354 5351 5347 5344 5340 5337 5333 5329 5325 5321 5317 5312 5308 5303 5298 5293 5289 5284 5281 5278 5276 5274 5272 5271 5268 5266 5264 5263 5261 5260 5259 5258 5257 5256 5256 5255 5255 5254 5254 5253 5253 5252 5252 5252 5252 5252 5252 5252 5252 5252 5252 5252 5252 5252 5251 5252 5252
5397 5396 5394 5393 5391 5390 5389 5388 5387 5386 5385 5383 5382 5381 5379 5378 5376 5374 5372 5370 5368 5366 5363 5361 5358 5355 5353 5350 5346 5343 5340 5336 5333 5329 5325 5322 5317 5313 5309 5304 5300 5295 5291 5287 5283 5279 5275 5273 5271 5269 5267 5266 5264 5262 5261 5259 5258 5257 5256 5255 5254 5253 5253 5252 5252 5251 5250 5250 5250 5249 5249 5249 5249 5249 5249 5249 5249 5249 5249 5249 5249 5248 5248 5248 5248
5386 5385 5384 5382 5381 5380 5380 5379 5378 5377 5376 5375 5374 5372 5371 5370 5368 5366 5364 5362 5360 5357 5355 5352 5350 5347 5344 5341 5338 5335 5332 5328 5325 5321 5318 5314 5310 5306 5302 5297 5293 5288 5284 5280 5276 5273 5270 5268 5265 5264 5262 5261 5259 5258 5257 5255 5254 5253 5252 5251 5250 5250 5249 5249 5248 5248 5247 5247 5246 5246 5246 5246 5246 5246 5246 5246 5246 5246 5245 5245 5245 5245 5245 5245 5245